User: anonymous   Login
Location: ????????
(55.0097°N, 38.5678°E)
Time: 07:40:00
(UTC+00:00)
Language:

Cosmos 2297 - Orbit

View from above orbital plane
View from above orbital plane
View from above satellite
View from above satellite

Ground track
Ground track

The orbit data is extracted from the following two-line orbital elements,

1 23404U 94077A   24165.03937337  .00000375  00000-0  22297-3 0  9993
2 23404  71.0153 348.4522 0017040 235.1587 124.7933 14.13738848524820
Epoch (UTC): 13 June 2024 00:56:41
Eccentricity: 0.0017040
inclination: 71.0153°
perigee height: 834 km
apogee height: 859 km
right ascension of ascending node: 348.4522°
argument of perigee: 235.1587°
revolutions per day: 14.13738848
mean anomaly at epoch: 124.7933°
orbit number at epoch: 52482

The dashed part of the orbit path shows where the satellite is in the earth's shadow,  

DLR